CCA225 EDDF-ZBAD

Flight info

Callsign CCA225
Flight time N/A
Altitude 35000
Route SULUS6F/25C SULUS Z650 VEMUT/N0489F330 DCT PEPIK DCT BALAP DCT ARCAZ DCT UDROS DCT KARDE/N0489F350 DCT ROLIN DCT LAGAS DCT LUSAL DCT METKA DCT TIMGA/K0900F350 DCT BORIS DCT TRK DCT ARBOL DCT RULAD/K0893S1130 DCT POSOT DCT NUKTI DCT DKO DCT ELAPU ELAPU6M
Aircraft B77W/H-SDE1E2E3FGHIJ2J3J4J5M1RWXY/LB1D1

Departure

Time 2026-05-07 07:17
Airport Frankfurt Main Airport (EDDF)

Arrival

Time N/A
Airport Beijing Daxing International Airport (ZBAD)
Time Latitude Longitude Altitude Speed Heading
2026-05-07 07:02 50.04788 8.58358 382 ft 0 kts 160°
2026-05-07 07:09 50.04792 8.58357 382 ft 2 kts 160°
2026-05-07 07:10 50.04806 8.58349 383 ft 2 kts 159°
2026-05-07 07:10 50.04819 8.58341 383 ft 2 kts 159°
2026-05-07 07:10 50.04833 8.58333 384 ft 2 kts 160°
2026-05-07 07:10 50.04847 8.58325 384 ft 1 kts 160°
2026-05-07 07:11 50.04856 8.58319 384 ft 1 kts 140°
2026-05-07 07:11 50.04862 8.58301 384 ft 2 kts 85°
2026-05-07 07:11 50.04860 8.58289 384 ft 1 kts 69°
2026-05-07 07:11 50.04860 8.58286 384 ft 0 kts 69°
2026-05-07 07:13 50.04865 8.58307 383 ft 4 kts 70°
2026-05-07 07:14 50.04884 8.58388 381 ft 11 kts 70°
2026-05-07 07:14 50.04918 8.58538 378 ft 16 kts 69°
2026-05-07 07:14 50.04866 8.58693 371 ft 20 kts 150°
2026-05-07 07:14 50.04724 8.58768 364 ft 23 kts 179°
2026-05-07 07:15 50.04577 8.58705 365 ft 21 kts 219°
2026-05-07 07:15 50.04479 8.58545 369 ft 17 kts 246°
2026-05-07 07:15 50.04473 8.58521 370 ft 0 kts 249°
2026-05-07 07:16 50.04473 8.58520 370 ft 2 kts 249°
2026-05-07 07:16 50.04386 8.58128 374 ft 74 kts 252°
2026-05-07 07:16 50.04120 8.57043 365 ft 139 kts 250°
2026-05-07 07:16 50.03715 8.55345 348 ft 193 kts 251°
2026-05-07 07:17 50.03212 8.53252 667 ft 212 kts 251°
2026-05-07 07:17 50.02698 8.51148 1510 ft 206 kts 248°
2026-05-07 07:17 50.01825 8.49411 2137 ft 215 kts 218°
2026-05-07 07:17 50.00360 8.48642 2418 ft 239 kts 183°
2026-05-07 07:18 49.98700 8.49208 2845 ft 256 kts 153°
2026-05-07 07:18 49.97332 8.51053 3309 ft 266 kts 125°
2026-05-07 07:18 49.96343 8.53460 4039 ft 268 kts 118°
2026-05-07 07:18 49.95437 8.55981 4737 ft 271 kts 118°
2026-05-07 07:19 49.94517 8.58553 5431 ft 274 kts 118°
2026-05-07 07:19 49.93593 8.61131 6060 ft 279 kts 118°
2026-05-07 07:19 49.92720 8.63812 6634 ft 283 kts 105°
2026-05-07 07:19 49.92519 8.66842 7195 ft 283 kts 83°
2026-05-07 07:20 49.92739 8.69925 7646 ft 294 kts 81°
2026-05-07 07:20 49.93001 8.73136 7957 ft 310 kts 81°
2026-05-07 07:20 49.93281 8.76552 8278 ft 326 kts 81°
2026-05-07 07:20 49.93572 8.80114 8714 ft 337 kts 81°
2026-05-07 07:21 49.93864 8.83732 9351 ft 341 kts 81°
2026-05-07 07:21 49.94157 8.87376 10002 ft 343 kts 81°
2026-05-07 07:21 49.94453 8.91058 10570 ft 349 kts 81°
2026-05-07 07:21 49.94758 8.94876 10857 ft 363 kts 81°
2026-05-07 07:22 49.95076 8.98868 11160 ft 376 kts 81°
2026-05-07 07:22 49.95397 9.02916 11656 ft 382 kts 81°
2026-05-07 07:22 49.95719 9.07007 12245 ft 385 kts 81°
2026-05-07 07:22 49.96041 9.11122 12830 ft 388 kts 81°
2026-05-07 07:23 49.96366 9.15287 13391 ft 391 kts 81°
2026-05-07 07:23 49.96693 9.19501 13943 ft 394 kts 81°
2026-05-07 07:23 49.97021 9.23753 14484 ft 397 kts 81°
2026-05-07 07:23 49.97350 9.28037 15011 ft 400 kts 81°
2026-05-07 07:24 49.97676 9.32300 15527 ft 403 kts 81°
2026-05-07 07:24 49.98005 9.36627 16026 ft 406 kts 82°
2026-05-07 07:24 49.98337 9.41011 16529 ft 409 kts 82°
2026-05-07 07:24 49.98667 9.45397 17012 ft 412 kts 81°
2026-05-07 07:25 49.99334 9.54319 17947 ft 417 kts 82°
2026-05-07 07:25 49.99663 9.58756 18402 ft 420 kts 81°
2026-05-07 07:25 49.99997 9.63284 18860 ft 422 kts 82°
2026-05-07 07:26 50.00332 9.67863 19305 ft 424 kts 82°
2026-05-07 07:26 50.00664 9.72421 19699 ft 427 kts 82°
2026-05-07 07:26 50.00998 9.77020 20083 ft 431 kts 82°
2026-05-07 07:26 50.01332 9.81654 20494 ft 433 kts 82°
2026-05-07 07:27 50.01664 9.86292 20886 ft 435 kts 82°
2026-05-07 07:27 50.01998 9.90976 21270 ft 438 kts 82°
2026-05-07 07:27 50.02333 9.95708 21534 ft 443 kts 82°
2026-05-07 07:27 50.02670 10.00493 21746 ft 450 kts 82°
2026-05-07 07:28 50.03014 10.05403 22002 ft 455 kts 82°
2026-05-07 07:28 50.03353 10.10273 22239 ft 461 kts 82°
2026-05-07 07:28 50.03696 10.15228 22495 ft 465 kts 82°
2026-05-07 07:28 50.04045 10.20305 22742 ft 470 kts 81°
2026-05-07 07:29 50.04392 10.25391 22980 ft 475 kts 81°
2026-05-07 07:29 50.04735 10.30450 23216 ft 480 kts 81°
2026-05-07 07:29 50.05085 10.35650 23456 ft 485 kts 81°
2026-05-07 07:29 50.05438 10.40920 23681 ft 490 kts 81°
2026-05-07 07:30 50.05785 10.46153 23902 ft 495 kts 81°
2026-05-07 07:30 50.06140 10.51533 24116 ft 500 kts 81°
2026-05-07 07:30 50.06496 10.56972 24364 ft 504 kts 80°
2026-05-07 07:30 50.06844 10.62337 24585 ft 508 kts 80°
2026-05-07 07:31 50.07102 10.67905 24772 ft 516 kts 87°
2026-05-07 07:31 50.06723 10.74932 24994 ft 525 kts 99°
2026-05-07 07:31 50.05196 10.83645 25345 ft 531 kts 107°
2026-05-07 07:31 50.04012 10.89352 25471 ft 537 kts 108°
2026-05-07 07:32 50.02852 10.94886 25649 ft 541 kts 108°
2026-05-07 07:32 50.01690 11.00394 25847 ft 544 kts 108°
2026-05-07 07:32 50.00494 11.06046 26082 ft 546 kts 108°
2026-05-07 07:32 49.99313 11.11596 26281 ft 549 kts 108°
2026-05-07 07:33 49.98104 11.17264 26383 ft 555 kts 108°
2026-05-07 07:33 49.96878 11.22989 26587 ft 557 kts 108°
2026-05-07 07:33 49.95662 11.28707 26781 ft 560 kts 107°
2026-05-07 07:33 49.94449 11.34434 26903 ft 564 kts 107°
2026-05-07 07:34 49.93221 11.40216 27032 ft 568 kts 107°
2026-05-07 07:34 49.92053 11.46046 27231 ft 569 kts 103°
2026-05-07 07:34 49.90980 11.51951 27385 ft 572 kts 103°
2026-05-07 07:34 49.90497 11.54625 27448 ft 574 kts 103°
2026-05-07 07:35 49.89911 11.57861 27522 ft 575 kts 103°
2026-05-07 07:35 49.88833 11.63783 27614 ft 579 kts 103°
2026-05-07 07:35 49.87958 11.69828 27676 ft 579 kts 96°
2026-05-07 07:35 49.87382 11.76010 27766 ft 581 kts 94°
2026-05-07 07:36 49.86844 11.82195 27944 ft 582 kts 93°
2026-05-07 07:36 49.86301 11.88403 28215 ft 581 kts 93°
2026-05-07 07:36 49.85755 11.94589 28367 ft 582 kts 93°
2026-05-07 07:37 49.84644 12.07056 28521 ft 588 kts 93°
2026-05-07 07:37 49.84083 12.13291 28660 ft 590 kts 92°
2026-05-07 07:37 49.83505 12.19662 28801 ft 591 kts 92°
2026-05-07 07:38 49.82355 12.32227 28994 ft 595 kts 92°
2026-05-07 07:38 49.81771 12.38584 29128 ft 597 kts 92°
2026-05-07 07:38 49.81122 12.44959 29240 ft 601 kts 96°
2026-05-07 07:39 49.78830 12.57535 29426 ft 610 kts 103°
2026-05-07 07:39 49.77569 12.63823 29564 ft 611 kts 103°
2026-05-07 07:39 49.76321 12.70028 29578 ft 614 kts 104°
2026-05-07 07:40 49.73769 12.82667 29706 ft 618 kts 104°
2026-05-07 07:40 49.71194 12.95346 29881 ft 621 kts 103°
2026-05-07 07:41 49.68596 13.08064 30042 ft 624 kts 103°
2026-05-07 07:41 49.67277 13.14491 30212 ft 626 kts 103°
2026-05-07 07:41 49.65947 13.20957 30372 ft 627 kts 103°
2026-05-07 07:41 49.64621 13.27379 30492 ft 629 kts 103°
2026-05-07 07:42 49.63290 13.33807 30605 ft 632 kts 103°
2026-05-07 07:42 49.61957 13.40222 30804 ft 633 kts 103°
2026-05-07 07:42 49.60596 13.46748 31109 ft 633 kts 103°
2026-05-07 07:42 49.59258 13.53149 31279 ft 634 kts 104°
2026-05-07 07:43 49.57898 13.59633 31432 ft 635 kts 103°
2026-05-07 07:43 49.56529 13.66137 31663 ft 636 kts 104°
2026-05-07 07:43 49.55177 13.72541 31660 ft 638 kts 104°
2026-05-07 07:44 49.52429 13.85498 31886 ft 640 kts 104°
2026-05-07 07:44 49.51044 13.91992 32066 ft 640 kts 104°
2026-05-07 07:44 49.49646 13.98535 32095 ft 641 kts 105°
2026-05-07 07:45 49.47887 14.06732 32141 ft 643 kts 104°
2026-05-07 07:45 49.45217 14.19111 32155 ft 647 kts 104°
2026-05-07 07:46 49.42376 14.32208 32178 ft 651 kts 104°
2026-05-07 07:46 49.39508 14.45342 32209 ft 655 kts 104°
2026-05-07 07:47 49.36593 14.58604 32250 ft 660 kts 104°
2026-05-07 07:47 49.33638 14.71964 32271 ft 664 kts 105°
2026-05-07 07:48 49.30658 14.85350 32304 ft 667 kts 105°
2026-05-07 07:48 49.27650 14.98777 32355 ft 669 kts 105°
2026-05-07 07:49 49.24609 15.12259 32430 ft 672 kts 105°
2026-05-07 07:49 49.21278 15.25569 32523 ft 676 kts 115°
2026-05-07 07:50 49.16684 15.38071 32630 ft 676 kts 121°
2026-05-07 07:50 49.11927 15.50464 32748 ft 677 kts 121°
2026-05-07 07:51 49.07148 15.62855 32876 ft 678 kts 121°
2026-05-07 07:51 49.02370 15.75183 32957 ft 679 kts 122°
2026-05-07 07:52 48.97569 15.87515 33038 ft 679 kts 122°
2026-05-07 07:52 48.92754 15.99827 33130 ft 679 kts 123°
2026-05-07 07:53 48.87941 16.12075 33209 ft 679 kts 123°
2026-05-07 07:53 48.83083 16.24380 33269 ft 678 kts 123°
2026-05-07 07:54 48.78257 16.36548 33340 ft 677 kts 123°
2026-05-07 07:54 48.73409 16.48716 33424 ft 676 kts 123°
2026-05-07 07:55 48.68536 16.60890 33519 ft 674 kts 124°
2026-05-07 07:55 48.63679 16.72973 33575 ft 672 kts 124°
2026-05-07 07:56 48.58825 16.84991 33612 ft 670 kts 125°
2026-05-07 07:56 48.53953 16.97003 33664 ft 667 kts 125°
2026-05-07 07:57 48.49119 17.08865 33731 ft 664 kts 125°
2026-05-07 07:57 48.44289 17.20667 33811 ft 661 kts 125°
2026-05-07 07:58 48.39481 17.32362 33903 ft 658 kts 125°
2026-05-07 07:58 48.34676 17.44000 34010 ft 655 kts 124°
2026-05-07 07:59 48.29874 17.55581 34194 ft 652 kts 125°
2026-05-07 07:59 48.25105 17.67033 34357 ft 650 kts 126°
2026-05-07 08:00 48.20679 17.77618 34453 ft 647 kts 126°
2026-05-07 08:00 48.15887 17.89031 34563 ft 644 kts 126°
2026-05-07 08:01 48.11142 18.00286 34687 ft 641 kts 126°
2026-05-07 08:01 48.06406 18.11472 34826 ft 637 kts 125°
2026-05-07 08:02 48.01692 18.22561 34982 ft 634 kts 125°
2026-05-07 08:02 47.96943 18.33685 34993 ft 634 kts 126°
2026-05-07 08:03 47.92211 18.44722 34997 ft 636 kts 125°
2026-05-07 08:03 47.87445 18.55794 34979 ft 637 kts 125°
2026-05-07 08:04 47.82646 18.66899 34971 ft 637 kts 127°
2026-05-07 08:04 47.77874 18.77896 34953 ft 635 kts 126°
2026-05-07 08:05 47.73069 18.88926 34955 ft 633 kts 127°
2026-05-07 08:05 47.68298 18.99832 34956 ft 632 kts 127°
2026-05-07 08:06 47.63521 19.10710 34962 ft 631 kts 126°
2026-05-07 08:06 47.58718 19.21601 34971 ft 630 kts 127°
2026-05-07 08:07 47.53942 19.32390 34978 ft 630 kts 127°
2026-05-07 08:07 47.49104 19.43274 34983 ft 630 kts 126°
2026-05-07 08:08 47.44279 19.54089 34989 ft 630 kts 127°
2026-05-07 08:08 47.39471 19.64819 34994 ft 631 kts 127°
2026-05-07 08:09 47.34609 19.75631 34966 ft 630 kts 127°
2026-05-07 08:09 47.29779 19.86329 34972 ft 629 kts 128°
2026-05-07 08:10 47.24945 19.96994 34976 ft 629 kts 127°
2026-05-07 08:10 47.20083 20.07680 34982 ft 628 kts 127°
2026-05-07 08:11 47.15203 20.18363 34986 ft 628 kts 128°
2026-05-07 08:11 47.10354 20.28937 34991 ft 628 kts 128°
2026-05-07 08:12 47.05477 20.39533 34995 ft 629 kts 128°
2026-05-07 08:12 47.00560 20.50172 34999 ft 630 kts 127°
2026-05-07 08:13 46.95658 20.60740 35006 ft 631 kts 128°
2026-05-07 08:13 46.90672 20.71447 34976 ft 633 kts 129°
2026-05-07 08:14 46.85725 20.82032 34960 ft 631 kts 129°
2026-05-07 08:14 46.80776 20.92582 34962 ft 630 kts 129°
2026-05-07 08:15 46.75858 21.03024 34965 ft 628 kts 128°
2026-05-07 08:15 46.70873 21.13569 34971 ft 627 kts 128°
2026-05-07 08:16 46.65929 21.23987 34977 ft 627 kts 129°
2026-05-07 08:16 46.60973 21.34392 34980 ft 626 kts 128°
2026-05-07 08:17 46.56052 21.44685 34986 ft 626 kts 129°
2026-05-07 08:17 46.51587 21.55588 34996 ft 630 kts 116°
2026-05-07 08:18 46.47723 21.66983 34979 ft 630 kts 118°
2026-05-07 08:18 46.43776 21.78410 34966 ft 641 kts 118°
2026-05-07 08:19 46.39700 21.90013 34968 ft 653 kts 118°
2026-05-07 08:19 46.35505 22.01811 34971 ft 665 kts 118°
2026-05-07 08:20 46.31207 22.13796 34971 ft 678 kts 118°
2026-05-07 08:20 46.26816 22.25953 34977 ft 690 kts 118°
2026-05-07 08:21 46.22367 22.38201 34982 ft 696 kts 119°
2026-05-07 08:21 46.17833 22.50615 34978 ft 699 kts 118°
2026-05-07 08:22 46.13313 22.62929 34986 ft 699 kts 118°
2026-05-07 08:22 46.08741 22.75322 34962 ft 699 kts 120°
2026-05-07 08:23 46.04158 22.87687 34964 ft 699 kts 120°
2026-05-07 08:23 45.99564 23.00020 34966 ft 700 kts 120°
2026-05-07 08:24 45.94960 23.12328 34972 ft 700 kts 119°
2026-05-07 08:24 45.90369 23.24543 34978 ft 698 kts 119°
2026-05-07 08:25 45.85758 23.36755 34961 ft 695 kts 119°
2026-05-07 08:25 45.81153 23.48898 34954 ft 695 kts 120°
2026-05-07 08:26 45.74198 23.67133 34937 ft 695 kts 121°
2026-05-07 08:26 45.69571 23.79199 34920 ft 695 kts 120°
2026-05-07 08:27 45.64897 23.91334 34928 ft 694 kts 121°
2026-05-07 08:27 45.60247 24.03351 34936 ft 695 kts 120°
2026-05-07 08:28 45.55565 24.15400 34944 ft 694 kts 121°
2026-05-07 08:28 45.50880 24.27405 34954 ft 694 kts 120°
2026-05-07 08:29 45.46177 24.39402 34947 ft 695 kts 120°
2026-05-07 08:29 45.41454 24.51399 34946 ft 695 kts 120°
2026-05-07 08:30 45.36727 24.63354 34953 ft 696 kts 121°
2026-05-07 08:30 45.31987 24.75291 34927 ft 695 kts 122°
2026-05-07 08:31 45.27225 24.87232 34940 ft 695 kts 121°
2026-05-07 08:31 45.22462 24.99124 34957 ft 694 kts 122°
2026-05-07 08:32 45.17701 25.10961 34963 ft 694 kts 122°
2026-05-07 08:32 45.12922 25.22790 34965 ft 694 kts 122°
2026-05-07 08:33 45.08092 25.34698 34973 ft 694 kts 121°
2026-05-07 08:33 45.03267 25.46541 34983 ft 694 kts 122°
2026-05-07 08:34 44.98457 25.58301 34993 ft 694 kts 122°
2026-05-07 08:34 44.93592 25.70142 34965 ft 694 kts 122°
2026-05-07 08:35 44.88762 25.81849 34957 ft 693 kts 123°
2026-05-07 08:35 44.83893 25.93604 34958 ft 693 kts 122°
2026-05-07 08:36 44.79253 26.04759 34965 ft 692 kts 122°
2026-05-07 08:36 44.74382 26.16491 34965 ft 693 kts 119°
2026-05-07 08:37 44.70736 26.28957 34973 ft 694 kts 102°
2026-05-07 08:37 44.68990 26.42150 34988 ft 687 kts 90°
2026-05-07 08:38 44.67807 26.55436 34989 ft 684 kts 90°
2026-05-07 08:38 44.66625 26.68652 34963 ft 684 kts 91°
2026-05-07 08:39 44.65426 26.81879 34963 ft 683 kts 91°
2026-05-07 08:39 44.64210 26.95126 34968 ft 683 kts 91°
2026-05-07 08:40 44.62990 27.08245 34973 ft 683 kts 91°
2026-05-07 08:40 44.61741 27.21510 34979 ft 683 kts 91°
2026-05-07 08:41 44.60489 27.34643 34984 ft 684 kts 91°
2026-05-07 08:41 44.59211 27.47876 34988 ft 684 kts 91°
2026-05-07 08:42 44.57921 27.61071 34994 ft 684 kts 91°
2026-05-07 08:42 44.56616 27.74255 34969 ft 684 kts 92°
2026-05-07 08:43 44.55293 27.87459 34968 ft 684 kts 92°
2026-05-07 08:43 44.53957 28.00648 34974 ft 684 kts 92°
2026-05-07 08:44 44.52605 28.13829 34978 ft 684 kts 92°
2026-05-07 08:44 44.51239 28.26991 34982 ft 684 kts 92°
2026-05-07 08:45 44.49849 28.40244 34987 ft 685 kts 92°
2026-05-07 08:45 44.48457 28.53356 34993 ft 685 kts 92°
2026-05-07 08:46 44.47039 28.66561 34990 ft 685 kts 94°
2026-05-07 08:46 44.45618 28.79651 34969 ft 685 kts 93°
2026-05-07 08:47 44.44169 28.92854 34975 ft 685 kts 93°
2026-05-07 08:47 44.42715 29.05961 34980 ft 685 kts 93°
2026-05-07 08:48 44.41241 29.19107 34984 ft 685 kts 93°
2026-05-07 08:48 44.39754 29.32226 34989 ft 685 kts 94°
2026-05-07 08:49 44.38257 29.45292 34994 ft 685 kts 93°
2026-05-07 08:49 44.36729 29.58490 34999 ft 686 kts 93°
2026-05-07 08:50 44.35200 29.71568 34966 ft 686 kts 94°
2026-05-07 08:50 44.33644 29.84738 34974 ft 686 kts 94°
2026-05-07 08:51 44.32083 29.97809 34979 ft 686 kts 94°
2026-05-07 08:51 44.30499 30.10945 34984 ft 686 kts 94°
2026-05-07 08:52 44.28905 30.24028 34989 ft 686 kts 94°
2026-05-07 08:52 44.27290 30.37160 34994 ft 686 kts 94°
2026-05-07 08:53 44.25660 30.50281 34999 ft 687 kts 94°
2026-05-07 08:53 44.24029 30.63284 35004 ft 686 kts 94°
2026-05-07 08:54 44.22367 30.76408 34974 ft 687 kts 95°
2026-05-07 08:54 44.20700 30.89447 34979 ft 687 kts 95°
2026-05-07 08:55 44.19000 31.02621 34984 ft 687 kts 95°
2026-05-07 08:55 44.17294 31.15710 34990 ft 687 kts 95°
2026-05-07 08:56 44.15580 31.28748 34994 ft 687 kts 95°
2026-05-07 08:56 44.13922 31.41240 34999 ft 687 kts 95°
2026-05-07 08:57 44.12233 31.53860 35004 ft 687 kts 95°
2026-05-07 08:57 44.10533 31.66443 35001 ft 687 kts 96°
2026-05-07 08:58 44.08754 31.79501 34977 ft 688 kts 96°
2026-05-07 08:58 44.06965 31.92522 34983 ft 687 kts 96°
2026-05-07 08:59 44.05156 32.05563 34988 ft 688 kts 96°
2026-05-07 08:59 44.03337 32.18567 34993 ft 688 kts 96°
2026-05-07 09:00 44.01492 32.31635 34998 ft 688 kts 96°